Details From TJPS - Mercedita
To TNCM - St Maarten - Princess Juliana Intl
Flight Number -
Tags Generated
Created
Modified
Stats Distance 197 nm / 365 km
Max Altitude 0 ft / 0 m
Waypoints 2
Social Downloads 0
Likes 0
Share VATSIM

Download

Looking for another format? Having issues loading an existing format? Contact us
Advertisement - Login to hide

Notes

Generated

Route

TJPS TNCM

ID Type Via Altitude Latitude Longitude Leg Dist Tot Dist Heading (true) Name
O TJPS APT - 0 ft / 0 m 18.01124˚ -66.57247˚ - 0 nm - -
O TNCM APT - 0 ft / 0 m 18.03937˚ -63.11961˚ 197 nm 197 nm 89° / 90° -

Altitude Profile

Advertisement - Login to hide

Weather


0- 5 10 15 20 25 30 35+ Temperature / ° C

Clouds and Precipitation
Forecast for 2018-05-28 00:00 UTC. Updated 3 hours ago

Ground ~20,000 ft ~40,000 ft Winds

TJPS

Details ICAO TJPS (PSE)
Name Ponce/Mercedita
Region USA (Puerto Rico)
Timezone America/Puerto_Rico (UTC-4.0)
Stats Elevation 29 ft / 9 m (AMSL)
Location 18.008312° -66.563014°
Runways 1
Magnetic Variation 12.978° W

METAR

Not found

TAF

TAF TJPS 272320Z 2800/2824 09008KT P6SM SCT060 FM281500 13012KT P6SM FEW030 SCT060 AMD NOT SKED TIL 280300

Decode

Departure Runways

ID Width Length Bearing (true) Bearing (mag) Surface Threshold Offset Overrun Length
12 151 ft / 46 m 6,900 ft / 2,103 m 108.03° 121.01° Asphalt 787 ft / 240 m 200 ft / 61 m
30 151 ft / 46 m 6,900 ft / 2,103 m 288.03° 301.01° Asphalt 226 ft / 69 m 0 ft / 0 m

TNCM

Details ICAO TNCM (SXM)
Name St Maarten - Princess Juliana Intl
Region Caribbean Netherlands, Aruba, Curaçao, Sint Maarten
Timezone Unknown (UTC+0.0)
Stats Elevation 12 ft / 4 m (AMSL)
Location 18.040889° -63.108974°
Runways 1
Magnetic Variation 14.337° W

METAR

Not found

TAF

TAF TNCM 272320Z 2800/2824 09010KT P6SM VCTS SCT018CB SCT040

Decode

Destination Runways

ID Width Length Bearing (true) Bearing (mag) Surface Threshold Offset Overrun Length
10 148 ft / 45 m 7,464 ft / 2,275 m 81.43° 95.77° Asphalt 0 ft / 0 m 151 ft / 46 m
28 148 ft / 45 m 7,464 ft / 2,275 m 261.44° 275.78° Asphalt 397 ft / 121 m 0 ft / 0 m

Popular Alternatives